Location: Chihuahua
(28.6330°N, 106.0830°W)
Time: 19:10:54
(UTC-07:00)

Daily predictions for brighter satellites

Satellite Brightness Start Highest point End
(mag) Time Altitude Azimuth Time Altitude Azimuth Time Altitude Azimuth
BREEZE-M DEB (TANK) 4.5 18:17:33 10° NW 18:21:36 84° SW 18:36:39 10° SE
Cosmos 2150 Rocket 4.0 18:32:43 10° S 18:37:46 60° ESE 18:42:50 10° NNE
Cosmos 1953 Rocket 4.4 18:39:39 10° NNW 18:43:59 57° W 18:48:20 10° S
Cosmos 2112 Rocket 4.0 18:38:44 10° N 18:44:00 72° ENE 18:49:11 10° SSE
Cosmos 2278 Rocket 2.7 18:40:35 10° S 18:45:47 39° ESE 18:51:00 10° NE
Cosmos 1953 4.3 18:48:25 10° E 18:49:07 10° E 18:49:50 10° ENE
USA 215 3.4 18:43:32 10° NE 18:49:52 52° SE 18:56:10 10° SSW
Cosmos 1898 Rocket 3.9 18:45:16 10° SSW 18:50:34 73° WNW 18:55:52 10° N
Cosmos 1378 4.1 18:47:38 10° NNE 18:50:50 26° E 18:54:01 10° SE
Cosmos 990 Rocket 4.0 18:46:18 10° S 18:51:27 61° ESE 18:56:37 10° NNE
Cosmos 1934 Rocket 4.2 18:46:49 10° SSE 18:52:43 49° E 18:58:33 10° NNE
H-2A R/B 3.9 18:51:36 10° SE 18:54:45 24° ENE 18:57:55 10° NNE
FENGYUN 3A 3.9 18:51:37 10° SSE 18:56:48 49° ENE 19:01:59 10° N
Cosmos 1707 2.6 19:02:15 10° N 19:06:08 83° E 19:09:59 10° S
Meteor 1-24 Rocket 4.0 19:02:49 10° N 19:08:06 44° E 19:13:30 10° SSE
HJ-1C 3.4 19:05:18 10° SSE 19:08:36 56° ENE 19:11:56 10° N
BREEZE-M DEB (TANK) 4.1 19:07:46 10° W 19:10:00 30° NNW 19:13:46 10° NE
ATLAS 5 CENTAUR R/B 3.6 19:07:46 10° SE 19:08:19 11° SE 19:08:19 11° SE
Cosmos 1821 Rocket 4.2 19:06:11 10° S 19:12:34 83° W 19:18:58 10° N
ALOS 2.2 19:08:04 10° SSE 19:12:42 77° ENE 19:17:23 10° N
Cosmos 1544 4.0 19:10:50 10° SSE 19:13:54 27° E 19:17:00 10° NNE
Cosmos 1766 3.1 19:10:07 10° S 19:13:57 70° E 19:17:49 10° N
Cosmos 1812 Rocket 3.6 19:10:04 10° S 19:14:30 83° W 19:18:55 10° N
Meteor 2-5 Rocket 3.8 19:08:56 10° N 19:14:42 86° W 19:20:33 10° S
Resurs 01 Rocket 1.8 19:11:14 10° SSE 19:15:26 48° ENE 19:19:41 10° N
Geosat 4.0 19:11:07 10° NNE 19:16:09 89° WNW 19:21:10 10° SSW
Aurora 2 Rocket 4.1 19:11:11 10° SW 19:17:08 32° SSE 19:19:48 20° ESE
NOSS 3-4 (A) 4.4 19:10:41 10° NW 19:17:50 64° WSW 19:25:22 10° SSE
NOSS 3-4 (C) 4.3 19:10:47 10° NW 19:17:56 65° WSW 19:25:29 10° SSE
RESURS DK-1 3.6 19:18:33 10° NNE 19:21:49 22° ENE 19:22:07 22° ENE
SL-27 R/B 3.4 19:21:03 10° N 19:24:12 28° ENE 19:24:14 28° ENE
Lacrosse 5 3.0 19:23:44 10° WSW 19:28:34 45° NW 19:33:25 10° NNE
Timation 1 Rocket 4.4 19:23:17 10° S 19:29:05 55° ESE 19:34:57 10° NNE
COSMOS 2406 3.3 19:24:00 10° NNW 19:29:44 79° WSW 19:35:24 10° SSE
Cosmos 1605 Rocket 3.9 19:24:20 10° S 19:30:30 72° E 19:36:47 10° N
SeaSat 1 2.7 19:29:28 10° SSE 19:34:21 69° WSW 19:39:17 10° NNW
Delta 2 Rocket 4.4 19:31:28 10° WNW 19:35:43 36° N 19:37:14 27° NE
Delta 168 3.2 19:33:18 10° SW 19:36:26 31° S 19:36:27 31° S
Cosmos 2098 Rocket 4.3 19:31:15 10° SSE 19:37:38 55° E 19:44:54 10° NNE
Delta 128 3.5 19:38:09 10° WSW 19:42:34 65° SSE 19:43:41 47° ESE
CZ-2D R/B 3.1 19:42:19 31° SSE 19:44:04 81° E 19:47:56 10° N
Cosmos 1805 3.2 19:46:43 10° S 19:50:35 79° W 19:54:29 10° N
Helios 1A 3.0 19:50:45 56° ENE 19:50:45 56° ENE 19:54:45 10° N
Cosmos 2123 Rocket 4.0 19:44:19 10° N 19:50:40 88° W 19:56:56 10° S
Cosmos 1867 3.4 19:49:19 10° SSW 19:54:43 75° ESE 20:00:10 10° NNE
Helios 1B rocket 2.6 19:51:14 10° N 19:55:20 72° WNW 19:59:26 10° SSW
Cosmos 1153 Rocket 4.4 19:53:27 10° S 19:59:50 85° E 20:06:15 10° N
Resurs 1-3 4.4 19:59:03 12° S 20:02:59 49° W 20:07:14 10° NNW
Yuri Rocket 3.1 20:05:59 10° W 20:09:36 67° WSW 20:09:36 67° WSW
Cosmos 372 Rocket 3.7 20:05:36 10° SSW 20:10:40 84° ESE 20:15:49 10° NNE
SWIFT 4.2 20:08:08 10° WSW 20:10:35 21° SSW 20:10:35 21° SSW
Cosmos 1758 4.4 20:11:06 10° SSW 20:14:52 43° W 20:18:40 10° N
Cosmos 1953 3.9 20:21:23 10° SSW 20:25:08 35° W 20:28:53 10° NNW
Cosmos 1459 Rocket 3.8 20:29:44 85° ESE 20:29:47 85° E 20:36:02 10° N
Cosmos 1447 Rocket 4.5 20:24:03 10° N 20:30:11 76° W 20:31:29 56° SSW
Cosmos 2173 Rocket 3.9 20:32:36 73° NNE 20:32:36 73° NNE 20:38:10 10° N
Envisat 3.6 20:34:42 53° NNW 20:34:42 53° NNW 20:38:37 10° NNW
Delta 2 Rocket 4.3 20:28:12 10° W 20:34:03 52° SSW 20:34:03 52° SSW
Cosmos 1833 Rocket 4.2 20:31:49 10° N 20:34:23 26° NNE 20:34:23 26° NNE
ATLAS 5 CENTAUR R/B 4.4 20:49:51 10° SW 20:50:05 11° SW 20:50:05 11° SW
Cosmos 2082 Rocket 3.8 21:00:56 10° NNW 21:03:31 28° NNW 21:03:31 28° NNW
